{"data":{"norad_id":68632,"intl_designator":"2026-074F","name":"RAWHIDE-2","alt_names":[],"object_type":"PAYLOAD","status":"ACTIVE","operator":null,"country":"US","launch_date":"2026-04-07","launch_site_code":"AFWTR","launch_vehicle":null,"mission":null,"orbit_class":"UNKNOWN","rcs_meters":null,"size_class":null,"mass_kg":null,"dimensions":null,"purposes":[],"wikipedia_slug":null,"has_3d_model":false,"image_url":null,"decayed_at":null,"tle_current":{"epoch":"2026-05-25T01:27:12.775392Z","epoch_age_seconds":63712,"freshness":"FRESH","line1":"1 68632U 26074F   26145.06056453  .00009666  00000+0  38918-3 0  9999","line2":"2 68632  60.0319 266.7626 0024544  11.6094 348.5548 15.25243567  7252","mean_motion":15.25243567,"eccentricity":0.0024544,"inclination_deg":60.0319,"raan_deg":266.7626,"arg_perigee_deg":11.6094,"mean_anomaly_deg":348.5548,"bstar":0.00038918,"rev_number":725,"period_min":94.411150530688,"perigee_km":473.19685789684,"apogee_km":506.91143459554,"semimajor_km":6868.1911462462,"source":"CELESTRAK","updated_at":"2026-05-25T13:38:07.988260Z"}}}